Weather History for KMKS - December, 2012

Change the Weather History Date:

Monday, December 3, 2012

  Actual Average (KCHS) Record (KCHS)
Temperature  
Mean Temperature 64 °F 54 °F  
Max Temperature 77 °F 65 °F 79 °F (1998)
Min Temperature 50 °F 43 °F 17 °F (1960)
Degree Days  
Heating Degree Days 2 12  
Month to date heating degree days 34  
Since 1 July heating degree days 326  
Cooling Degree Days 0 0  
Month to date cooling degree days 0  
Year to date cooling degree days 2297  
Growing Degree Days 14 (Base 50)    
Moisture  
Dew Point 55 °F    
Average Humidity 83    
Maximum Humidity 100    
Minimum Humidity 53    
Precipitation  
Precipitation 0.00 in 0.09 in 1.77 in (1968)
Month to date precipitation 0.27  
Year to date precipitation 48.19  
Sea Level Pressure  
Sea Level Pressure 30.29 in    
Wind  
Wind Speed 0 mph (WNW)    
Max Wind Speed 6 mph    
Max Gust Speed -    
Visibility 5 miles    
Events Fog    
T = Trace of Precipitation, MM = Missing Value Source: NWS Daily Summary

Daily Weather History Graph

Daily Weather History Graph

Search for Another Location

Airport or City:

Trip Planner

Search our weather history database for the weather conditions in past years. The results will help you decide how hot, cold, wet, or windy it might be!

Date:

Astronomy

Dec. 03, 2012 Rise Set
Actual Time 7:07 AM EST 5:12 PM EST
Civil Twilight 6:40 AM EST 5:39 PM EST
Nautical Twilight 6:09 AM EST 6:10 PM EST
Astronomical Twilight 5:39 AM EST 6:40 PM EST
Moon 9:49 PM EST 10:36 AM EST
Length of Visible Light 10h 59m
Length of Day
10h 05m
Waning Gibbous, 78% of the Moon is Illuminated
Dec 3
Waning Gibbous
Dec 6
Last Quarter
Dec 13
New
Dec 20
First Quarter
Dec 28
Full

Hourly Weather History & Observations

Time (EST) Temp. Dew Point Humidity Pressure Visibility Wind Dir Wind Speed Gust Speed Precip Events Conditions
12:15 AM 53.6 °F 51.8 °F 94% 30.29 in 1.2 mi Calm Calm - N/A   Mist
12:35 AM 51.8 °F 50.0 °F 94% 30.29 in 0.5 mi Calm Calm - N/A Fog Fog
12:55 AM 51.8 °F 50.0 °F 94% 30.29 in 0.2 mi Calm Calm - N/A Fog Fog
1:15 AM 51.8 °F 50.0 °F 94% 30.29 in 5.0 mi Calm Calm - N/A   Mist
1:35 AM 51.8 °F 50.0 °F 94% 30.29 in 5.0 mi Calm Calm - N/A   Mist
1:55 AM 51.8 °F 50.0 °F 94% 30.30 in 0.5 mi Calm Calm - N/A Fog Fog
2:15 AM 51.8 °F 50.0 °F 94% 30.30 in 1.0 mi Calm Calm - N/A   Mist
2:35 AM 50.0 °F 50.0 °F 100% 30.30 in 0.2 mi Calm Calm - N/A Fog Fog
2:55 AM 51.8 °F 50.0 °F 94% 30.30 in 0.8 mi Calm Calm - N/A   Mist
3:15 AM 50.0 °F 48.2 °F 94% 30.30 in 0.5 mi Calm Calm - N/A Fog Fog
3:55 AM 50.0 °F 48.2 °F 94% 30.30 in 0.5 mi Calm Calm - N/A Fog Fog
4:15 AM 50.0 °F 48.2 °F 94% 30.30 in 0.8 mi Calm Calm - N/A   Mist
4:35 AM 50.0 °F 48.2 °F 94% 30.29 in 4.0 mi Calm Calm - N/A   Mist
4:55 AM 50.0 °F 48.2 °F 94% 30.29 in 1.0 mi Calm Calm - N/A   Mist
5:15 AM 50.0 °F 48.2 °F 94% 30.30 in 0.2 mi Calm Calm - N/A Fog Fog
5:35 AM 50.0 °F 48.2 °F 94% 30.30 in 0.2 mi Calm Calm - N/A Fog Fog
5:55 AM 50.0 °F 48.2 °F 94% 30.31 in 0.2 mi Calm Calm - N/A Fog Fog
6:15 AM 50.0 °F 48.2 °F 94% 30.31 in 1.0 mi Calm Calm - N/A   Mist
6:55 AM 50.0 °F 48.2 °F 94% 30.32 in 0.2 mi Calm Calm - N/A Fog Fog
7:15 AM 50.0 °F 48.2 °F 94% 30.32 in 1.2 mi Calm Calm - N/A   Mist
7:35 AM 50.0 °F 48.2 °F 94% 30.32 in 0.2 mi Calm Calm - N/A Fog Fog
7:55 AM 51.8 °F 50.0 °F 94% 30.33 in 0.2 mi Calm Calm - N/A Fog Fog
8:15 AM 51.8 °F 50.0 °F 94% 30.33 in 0.2 mi Calm Calm - N/A Fog Fog
8:35 AM 53.6 °F 51.8 °F 94% 30.33 in 0.2 mi Calm Calm - N/A Fog Fog
8:55 AM 55.4 °F 53.6 °F 94% 30.34 in 0.2 mi Calm Calm - N/A Fog Fog
9:15 AM 57.2 °F 55.4 °F 94% 30.34 in 0.2 mi Calm Calm - N/A Fog Fog
9:35 AM 59.0 °F 57.2 °F 94% 30.34 in 0.5 mi Calm Calm - N/A Fog Fog
9:55 AM 59.0 °F 57.2 °F 94% 30.34 in 0.8 mi Calm Calm - N/A   Mist
10:15 AM 60.8 °F 59.0 °F 94% 30.34 in 4.0 mi Calm Calm - N/A   Mist
10:35 AM 62.6 °F 60.8 °F 94% 30.34 in 7.0 mi Calm Calm - N/A   Unknown
10:55 AM 64.4 °F 62.6 °F 94% 30.33 in 7.0 mi Calm Calm - N/A   Unknown
11:15 AM 68.0 °F 62.6 °F 83% 30.33 in 10.0 mi Calm Calm - N/A   Unknown
11:35 AM 69.8 °F 60.8 °F 73% 30.32 in 7.0 mi NNW 3.5 mph - N/A   Unknown
11:55 AM 71.6 °F 60.8 °F 69% 30.31 in 7.0 mi Calm Calm - N/A   Unknown
12:15 PM 71.6 °F 60.8 °F 69% 30.30 in 10.0 mi Calm Calm - N/A   Unknown
12:35 PM 75.2 °F 60.8 °F 61% 30.29 in 10.0 mi SSW 4.6 mph - N/A   Unknown
1:15 PM 75.2 °F 59.0 °F 57% 30.27 in 7.0 mi SSW 4.6 mph - N/A   Unknown
1:35 PM 75.2 °F 59.0 °F 57% 30.27 in 10.0 mi North 4.6 mph - N/A   Unknown
1:55 PM 75.2 °F 60.8 °F 61% 30.26 in 10.0 mi NNW 5.8 mph - N/A   Unknown
2:15 PM 77.0 °F 59.0 °F 54% 30.26 in 7.0 mi North 4.6 mph - N/A   Unknown
2:35 PM 77.0 °F 60.8 °F 57% 30.25 in 7.0 mi North 3.5 mph - N/A   Unknown
2:55 PM 75.2 °F 59.0 °F 57% 30.25 in 10.0 mi Calm Calm - N/A   Unknown
3:15 PM 75.2 °F 59.0 °F 57% 30.25 in 10.0 mi Calm Calm - N/A   Unknown
3:35 PM 75.2 °F 59.0 °F 57% 30.25 in 7.0 mi Calm Calm - N/A   Unknown
3:55 PM 75.2 °F 59.0 °F 57% 30.25 in 10.0 mi Calm Calm - N/A   Unknown
4:15 PM 75.2 °F 57.2 °F 53% 30.25 in 10.0 mi Calm Calm - N/A   Unknown
4:35 PM 73.4 °F 59.0 °F 61% 30.26 in 10.0 mi Calm Calm - N/A   Unknown
4:55 PM 71.6 °F 59.0 °F 64% 30.26 in 10.0 mi Calm Calm - N/A   Unknown
5:15 PM 68.0 °F 60.8 °F 78% 30.27 in 10.0 mi Calm Calm - N/A   Unknown
5:35 PM 68.0 °F 60.8 °F 78% 30.26 in 10.0 mi Calm Calm - N/A   Unknown
5:55 PM 68.0 °F 60.8 °F 78% 30.27 in 10.0 mi Calm Calm - N/A   Unknown
6:15 PM 66.2 °F 59.0 °F 78% 30.28 in 10.0 mi South 3.5 mph - N/A   Unknown
6:35 PM 66.2 °F 60.8 °F 83% 30.28 in 10.0 mi South 4.6 mph - N/A   Unknown
7:15 PM 64.4 °F 59.0 °F 83% 30.28 in 10.0 mi Calm Calm - N/A   Unknown
7:35 PM 64.4 °F 59.0 °F 83% 30.29 in 10.0 mi Calm Calm - N/A   Unknown
7:55 PM 62.6 °F 59.0 °F 88% 30.29 in 10.0 mi Calm Calm - N/A   Unknown
8:15 PM 62.6 °F 59.0 °F 88% 30.29 in 7.0 mi Calm Calm - N/A   Unknown
8:35 PM 62.6 °F 59.0 °F 88% 30.29 in 7.0 mi Calm Calm - N/A   Unknown
8:55 PM 60.8 °F 57.2 °F 88% 30.29 in 7.0 mi Calm Calm - N/A   Unknown
9:15 PM 60.8 °F 57.2 °F 88% 30.29 in 7.0 mi Calm Calm - N/A   Unknown
9:35 PM 60.8 °F 57.2 °F 88% 30.29 in 7.0 mi Calm Calm - N/A   Unknown
10:15 PM 60.8 °F 57.2 °F 88% 30.29 in 7.0 mi Calm Calm - N/A   Unknown
10:35 PM 60.8 °F 57.2 °F 88% 30.29 in 7.0 mi Calm Calm - N/A   Unknown
10:55 PM 60.8 °F 57.2 °F 88% 30.30 in 7.0 mi Calm Calm - N/A   Unknown
11:15 PM 60.8 °F 57.2 °F 88% 30.30 in 7.0 mi Calm Calm - N/A   Unknown
11:35 PM 60.8 °F 57.2 °F 88% 30.29 in 7.0 mi Calm Calm - N/A   Unknown
11:55 PM 60.8 °F 57.2 °F 88% 30.29 in 7.0 mi Calm Calm - N/A   Unknown